Meacham, OR

11:59 PM PST on January 20, 2018 (GMT -0800)
Meacham

Weather History for KMEH - September, 2012

Change the Weather History Date:

Wednesday, September 19, 2012

  Actual Average Record
Temperature  
Mean Temperature 58 °F -  
Max Temperature 84 °F 66 °F 84 °F (2008)
Min Temperature 33 °F 30 °F 28 °F (2004)
Degree Days  
Heating Degree Days 6    
Growing Degree Days 8 (Base 50)    
Moisture  
Dew Point 29 °F    
Average Humidity 42    
Maximum Humidity 78    
Minimum Humidity 12    
Precipitation  
Precipitation 0.00 in - - ()
Sea Level Pressure  
Sea Level Pressure 30.16 in    
Wind  
Wind Speed 0 mph (North)    
Max Wind Speed 4 mph    
Max Gust Speed -    
Visibility 10 miles    
Events      
Averages and records for this station are not official NWS values.
T = Trace of Precipitation, MM = Missing Value Source: NWS Daily Summary

Daily Weather History Graph

Daily Weather History Graph

Search for Another Location

Airport or City:

Trip Planner

Search our weather history database for the weather conditions in past years. The results will help you decide how hot, cold, wet, or windy it might be!

Date:

Astronomy

Sep. 19, 2012 Rise Set
Actual Time 6:37 AM PDT 6:55 PM PDT
Civil Twilight 6:07 AM PDT 7:25 PM PDT
Nautical Twilight 5:33 AM PDT 8:00 PM PDT
Astronomical Twilight 4:57 AM PDT 8:36 PM PDT
Moon 11:08 AM PDT (9/19) 8:52 PM PDT (9/19)
Length of Visible Light 13h 17m
Length of Day
12h 18m
Waxing Crescent, 18% of the Moon is Illuminated
Sep 19
Waxing Crescent
Sep 22
First Quarter
Sep 29
Full
Oct 8
Last Quarter
Oct 15
New

Hourly Weather History & Observations

Time (PDT) Temp. Dew Point Humidity Pressure Visibility Wind Dir Wind Speed Gust Speed Precip Events Conditions
12:56 AM 39.9 °F 28.0 °F 63% 30.14 in 10.0 mi Calm Calm - N/A   Overcast
1:56 AM 39.0 °F 28.0 °F 65% 30.14 in 10.0 mi Calm Calm - N/A   Clear
2:56 AM 37.0 °F 28.0 °F 70% 30.15 in 10.0 mi Calm Calm - N/A   Partly Cloudy
3:56 AM 36.0 °F 28.0 °F 73% 30.15 in 10.0 mi Calm Calm - N/A   Scattered Clouds
4:56 AM 35.1 °F 27.0 °F 72% 30.16 in 10.0 mi Calm Calm - N/A   Clear
5:56 AM 34.0 °F 27.0 °F 75% 30.17 in 10.0 mi Calm Calm - N/A   Clear
6:56 AM 33.1 °F 27.0 °F 78% 30.20 in 10.0 mi Calm Calm - N/A   Clear
7:56 AM 39.0 °F 28.0 °F 65% 30.22 in 10.0 mi Calm Calm - N/A   Clear
8:56 AM 53.1 °F 34.0 °F 48% 30.20 in 10.0 mi Calm Calm - N/A   Clear
9:56 AM 70.0 °F 33.1 °F 26% 30.18 in 10.0 mi Calm Calm - N/A   Clear
10:56 AM 79.0 °F 27.0 °F 15% 30.17 in 10.0 mi Calm Calm - N/A   Clear
11:56 AM 82.9 °F 26.1 °F 13% 30.16 in 10.0 mi Variable 3.5 mph - N/A   Clear
12:56 PM 84.0 °F 28.0 °F 13% 30.15 in 10.0 mi Calm Calm - N/A   Clear
1:56 PM 84.0 °F 26.1 °F 12% 30.14 in 10.0 mi Variable 3.5 mph - N/A   Clear
2:56 PM 84.0 °F 26.1 °F 12% 30.14 in 10.0 mi Calm Calm - N/A   Clear
3:56 PM 84.0 °F 27.0 °F 13% 30.14 in 10.0 mi Variable 3.5 mph - N/A   Clear
4:56 PM 82.9 °F 27.0 °F 13% 30.14 in 10.0 mi Calm Calm - N/A   Clear
5:56 PM 79.0 °F 28.0 °F 15% 30.14 in 10.0 mi Calm Calm - N/A   Clear
6:56 PM 70.0 °F 30.0 °F 23% 30.16 in 10.0 mi Calm Calm - N/A   Clear
7:56 PM 60.1 °F 33.1 °F 36% 30.18 in 10.0 mi Calm Calm - N/A   Clear
8:56 PM 54.0 °F 34.0 °F 47% 30.17 in 10.0 mi Calm Calm - N/A   Clear
9:56 PM 50.0 °F 33.1 °F 52% 30.15 in 10.0 mi Calm Calm - N/A   Clear
10:56 PM 46.0 °F 32.0 °F 58% 30.14 in 10.0 mi Calm Calm - N/A   Clear
11:56 PM 44.1 °F 32.0 °F 63% 30.14 in 10.0 mi Calm Calm - N/A   Mostly Cloudy